This is the latest recevied weather packets stored in our database for station/object WA5TET. If no packets are shown the sender has not sent any weather packets the latest 10 day(s).
| Time | Temp. | Humidity | Pressure | Rain* | Wind** | Luminosity | Snow |
|---|---|---|---|---|---|---|---|
| 1788555853 | 38.33° C | 34% | 1010.6 hPa | 0 mm | - | 812 W/m² | - |
| 1788555549 | 38.33° C | 35% | 1010.8 hPa | 0 mm | - | 817 W/m² | - |
| 1788555244 | 37.78° C | 35% | 1010.6 hPa | 0 mm | - | 811 W/m² | - |
| 1788554941 | 37.78° C | 35% | 1010.8 hPa | 0 mm | - | 816 W/m² | - |
| 1788554637 | 37.22° C | 36% | 1010.7 hPa | 0 mm | - | 890 W/m² | - |
| 1788554333 | 37.22° C | 37% | 1010.7 hPa | 0 mm | - | 301 W/m² | - |
| 1788554029 | 37.22° C | 36% | 1010.9 hPa | 0 mm | - | 891 W/m² | - |
| 1788553724 | 37.22° C | 36% | 1010.9 hPa | 0 mm | - | 248 W/m² | - |
| 1788553421 | 37.78° C | 35% | 1011.1 hPa | 0 mm | - | 873 W/m² | - |
| 1788553116 | 37.78° C | 35% | 1011 hPa | 0 mm | - | 873 W/m² | - |
| 1788552816 | 37.78° C | 35% | 1011.1 hPa | 0 mm | - | 892 W/m² | - |
| 1788552511 | 37.22° C | 35% | 1011.3 hPa | 0 mm | - | 897 W/m² | - |
| 1788552210 | 37.22° C | 37% | 1011.4 hPa | 0 mm | - | 914 W/m² | - |
| 1788551905 | 36.67° C | 37% | 1011.5 hPa | 0 mm | - | 915 W/m² | - |
| 1788551603 | 37.78° C | 36% | 1011.5 hPa | 0 mm | - | 903 W/m² | - |
| 1788551324 | 37.22° C | 38% | 1011.5 hPa | 0 mm | - | 918 W/m² | - |
| 1788550997 | 37.78° C | 35% | 1011.6 hPa | 0 mm | - | 921 W/m² | - |
| 1788550693 | 36.67° C | 36% | 1011.6 hPa | 0 mm | - | 932 W/m² | - |
| 1788550388 | 36.67° C | 37% | 1011.6 hPa | 0 mm | - | 929 W/m² | - |
| 1788550083 | 36.67° C | 37% | 1012 hPa | 0 mm | - | 931 W/m² | - |
| 1788549778 | 36.67° C | 37% | 1012 hPa | 0 mm | - | 946 W/m² | - |
| 1788549475 | 36.11° C | 37% | 1012.2 hPa | 0 mm | - | 946 W/m² | - |
| 1788549171 | 36.11° C | 39% | 1012 hPa | 0 mm | - | 980 W/m² | - |
| 1788548868 | 36.11° C | 38% | 1012.2 hPa | 0 mm | - | 767 W/m² | - |
| 1788548563 | 36.11° C | 39% | 1012.3 hPa | 0 mm | - | 1047 W/m² | - |
* Rain latest hour (hover to see other rain measurements)
** Current wind speed in m/s (hover to see current wind gust speed)